Location: Goettingen
(51.5300°N, 9.9433°E)
Time: 17:24:15
(UTC+02:00)

ISS - Pass Details

Date: 08 May 2026
Orbit: 414 x 424 km, 51.6° (Epoch: 13 May)

Event Time Altitude Azimuth Distance (km) Brightness Sun altitude
Rises 22:27:59 0° 220° (SW) 2,341 -0.1 -12.0°
Reaches altitude 10° 22:30:14 10° 208° (SSW) 1,483 -1.2 -12.2°
Maximum altitude 22:33:06 27° 148° (SSE) 834 -2.8 -12.5°
Enters shadow 22:35:04 16° 99° (E) 1,186 -1.9 -12.7°
